Location: Sternwarte-Kraichtal
(49.1689°N, 8.6996°E)
Time: 11:29:14
(UTC+01:00)

Envisat - Visible Passes

Search period start: 28 February 2024 00:00
Search period end: 09 March 2024 00:00
Orbit: 762 x 764 km, 98.3° (Epoch: 27 February)

Date Brightness Start Highest point End Pass type
(mag) Time Alt. Az. Time Alt. Az. Time Alt. Az.
28 Feb 5.7 02:39:50 10° NE 02:41:16 14° ENE 02:41:16 14° ENE visible
28 Feb 3.5 04:17:38 10° N 04:21:27 50° N 04:21:27 50° N visible
28 Feb 4.8 05:58:30 10° NNW 06:00:49 13° NW 06:01:37 13° WNW visible
29 Feb 4.1 03:40:22 10° NNE 03:43:51 40° NE 03:43:51 40° NE visible
29 Feb 4.1 05:20:00 10° N 05:24:01 24° WNW 05:24:01 24° WNW visible
01 Mar 5.1 03:03:31 10° NE 03:06:15 23° ENE 03:06:15 23° ENE visible
01 Mar 3.4 04:42:11 10° N 04:46:26 43° NW 04:46:26 43° NW visible
02 Mar 5.8 02:27:37 10° ENE 02:28:40 12° ENE 02:28:40 12° ENE visible
02 Mar 3.3 04:04:43 10° NNE 04:08:50 59° NNE 04:08:50 59° NNE visible
02 Mar 4.6 05:45:03 10° NNW 05:48:06 16° NW 05:49:00 16° WNW visible
03 Mar 4.3 03:27:34 10° NNE 03:31:14 37° ENE 03:31:14 37° ENE visible
03 Mar 3.8 05:06:53 10° N 05:11:15 30° WNW 05:11:25 30° WNW visible
04 Mar 5.2 02:50:55 10° NE 02:53:38 20° ENE 02:53:38 20° ENE visible
04 Mar 3.1 04:29:11 10° N 04:33:49 56° NW 04:33:49 56° NW visible
04 Mar 4.9 06:10:56 10° NW 06:12:07 11° NW 06:13:18 10° WNW visible
05 Mar 3.3 03:51:49 10° NNE 03:56:14 62° NE 03:56:14 62° NE visible
05 Mar 4.3 05:31:46 10° NNW 05:35:22 20° WNW 05:36:24 19° WNW visible
06 Mar 4.5 03:14:48 10° NNE 03:18:38 33° ENE 03:18:38 33° ENE visible
06 Mar 3.5 04:53:48 10° N 04:58:26 37° WNW 04:58:49 36° WNW visible
07 Mar 5.4 02:38:27 10° NE 02:41:02 17° ENE 02:41:02 17° ENE visible
07 Mar 2.9 04:16:14 10° N 04:21:13 73° WNW 04:21:13 73° WNW visible
07 Mar 4.8 05:57:03 10° NNW 05:59:25 13° NW 06:01:23 11° WNW visible
08 Mar 3.6 03:38:58 10° NNE 03:43:37 54° E 03:43:37 54° E visible
08 Mar 4.1 05:18:34 10° N 05:22:37 25° WNW 05:23:47 22° W visible
